Location: Bosmont
(49.7318°N, 3.8587°E)
Time: 15:15:41
(UTC+00:00)

CZ-4C R/B - Visible Passes

Search period start: 30 September 2023 00:00
Search period end: 10 October 2023 00:00
Orbit: 452 x 603 km, 98.1° (Epoch: 29 September)

Date Brightness Start Highest point End Pass type
(mag) Time Alt. Az. Time Alt. Az. Time Alt. Az.
30 Sep 6.2 04:52:23 10° ESE 04:54:44 17° ENE 04:57:03 10° NNE visible
30 Sep 3.2 19:27:58 10° N 19:31:23 68° WNW 19:34:48 10° SSW visible
01 Oct 6.4 04:41:56 10° E 04:43:36 13° ENE 04:45:15 10° NNE visible
01 Oct 2.8 19:16:41 10° NNE 19:20:07 86° ESE 19:23:35 10° SSW visible
02 Oct 2.9 19:05:26 10° NNE 19:08:50 61° ESE 19:12:16 10° S visible
02 Oct 6.3 20:41:13 10° NW 20:42:39 12° WNW 20:44:06 10° W visible
03 Oct 3.2 18:54:13 10° NNE 18:57:31 44° E 18:59:40 19° SSE visible
03 Oct 6.0 20:29:21 10° NNW 20:31:29 16° WNW 20:33:38 10° W visible
04 Oct 3.6 18:43:02 10° NNE 18:46:11 32° E 18:46:34 31° ESE visible
04 Oct 5.6 20:17:41 10° NNW 20:20:17 20° WNW 20:21:43 16° W visible
05 Oct 4.2 18:31:55 10° NE 18:34:04 22° ENE 18:34:04 22° ENE visible
05 Oct 5.1 20:06:07 10° N 20:09:03 26° WNW 20:09:15 26° WNW visible
06 Oct 4.9 18:20:54 10° NE 18:21:46 14° ENE 18:21:46 14° ENE visible
06 Oct 4.8 19:54:36 10° N 19:56:58 30° NW 19:56:58 30° NW visible
07 Oct 5.9 05:07:10 10° ESE 05:09:52 21° ENE 05:12:31 10° NNE visible
07 Oct 4.9 19:43:08 10° N 19:44:47 25° N 19:44:47 25° N visible
08 Oct 6.1 04:56:24 10° ESE 04:58:37 16° ENE 05:00:48 10° NNE visible
08 Oct 5.2 19:31:42 10° N 19:32:40 18° N 19:32:40 18° N visible
09 Oct 6.3 04:45:52 10° E 04:47:23 12° ENE 04:48:53 10° NE visible
09 Oct 5.6 19:20:18 10° NNE 19:20:37 12° NNE 19:20:37 12° NNE visible
